This is the latest recevied weather packets stored in our database for station/object WE1C. If no packets are shown the sender has not sent any weather packets the latest 10 day(s).
| Time | Temp. | Humidity | Pressure | Rain* | Wind** | Luminosity | Snow |
|---|---|---|---|---|---|---|---|
| 1777587459 | 11.11° C | 92% | 1034.9 hPa | 0 mm | - | 28 W/m² | - |
| 1777587157 | 11.11° C | 92% | 1034.9 hPa | 0 mm | - | 52 W/m² | - |
| 1777586851 | 11.11° C | 92% | 1034.8 hPa | 0 mm | - | 46 W/m² | - |
| 1777586548 | 11.11° C | 92% | 1034.7 hPa | 0 mm | - | 59 W/m² | - |
| 1777586243 | 11.11° C | 93% | 1034.7 hPa | 0 mm | - | 75 W/m² | - |
| 1777585941 | 11.11° C | 93% | 1034.7 hPa | 0 mm | - | 81 W/m² | - |
| 1777585636 | 11.11° C | 93% | 1034.6 hPa | 0 mm | - | 74 W/m² | - |
| 1777585331 | 11.67° C | 93% | 1034.5 hPa | 0 mm | - | 73 W/m² | - |
| 1777585026 | 11.67° C | 93% | 1034.5 hPa | 0 mm | - | 56 W/m² | - |
| 1777584723 | 11.67° C | 92% | 1034.5 hPa | 0 mm | - | 48 W/m² | - |
| 1777584421 | 11.67° C | 92% | 1034.7 hPa | 0 mm | - | 61 W/m² | - |
| 1777584117 | 11.67° C | 93% | 1034.7 hPa | 0 mm | - | 109 W/m² | - |
| 1777583816 | 11.11° C | 94% | 1034.8 hPa | 0 mm | - | 119 W/m² | - |
| 1777583511 | 11.11° C | 94% | 1034.7 hPa | 0 mm | - | 64 W/m² | - |
| 1777583206 | 11.11° C | 93% | 1034.5 hPa | 0 mm | - | 41 W/m² | - |
| 1777582900 | 11.11° C | 93% | 1034.4 hPa | 0 mm | - | 30 W/m² | - |
| 1777582599 | 11.11° C | 92% | 1034.7 hPa | 0 mm | - | 31 W/m² | - |
| 1777582293 | 11.67° C | 93% | 1034.6 hPa | 0 mm | - | 36 W/m² | - |
| 1777581991 | 11.67° C | 92% | 1034.6 hPa | 0 mm | - | 57 W/m² | - |
| 1777581686 | 11.67° C | 93% | 1034.3 hPa | 0 mm | - | 46 W/m² | - |
| 1777581381 | 11.67° C | 91% | 1034.4 hPa | 0 mm | - | 46 W/m² | - |
| 1777581081 | 11.67° C | 90% | 1034.4 hPa | 0 mm | - | 77 W/m² | - |
| 1777580780 | 11.67° C | 92% | 1034.4 hPa | 0 mm | - | 136 W/m² | - |
| 1777580477 | 11.67° C | 91% | 1034.4 hPa | 0 mm | - | 95 W/m² | - |
| 1777580171 | 11.67° C | 93% | 1034 hPa | 0 mm | - | 96 W/m² | - |
* Rain latest hour (hover to see other rain measurements)
** Current wind speed in m/s (hover to see current wind gust speed)